www.pogodaiklimat.ru

Погода и климат >> Архив погоды >> Беларусь >> Бобруйск


АРХИВ ПОГОДЫ в Бобруйске

Время (UTC), дата Ветер
(напр.,м/с)
 
Видим.   Явления Облачность Т
(С)
Тd
(С)
f
(%)
Тe
(С)
Тes
(С)
Комфортность P
(гПа)
Po
(гПа)
Тmin
(С)
Tmax
(С)
R
(мм)
R24
(мм)
S
(см)
21 18.06 штиль 0 10 км 3/0
[Ci fib]
+15.5 +14.4 93 +15 +15 по сезону 1016.4 997.9
00 19.06 штиль 0 10 км туман поземный 4/0
[Ci fib]
+13.7 +12.9 95 +13 +13 по сезону 1016.6 997.9
03 19.06 штиль 0 8000 м дымка 9/0
[Ac trans]
+14.6 +14.0 96 +14 +15 по сезону 1016.6 998.0
06 19.06 В 2 16 км 9/0
[Ac trans]
+21.1 +15.2 69 +24 +28 комфорт 1016.6 998.4 +13.2
09 19.06 З 1 20 км 8/0
[Ac trans]
+23.3 +16.1 64 +28 +38 душно 1016.3 998.3
12 19.06 З 4 20 км 8/6 840 м
[Cu med, cong Ac trans]
+27.0 +16.0 51 +30 +33 душно 1014.8 997.0
15 19.06 З 2 20 км 3/0
[Ac trans]
+26.7 +16.0 52 +30 +34 душно 1013.4 995.6
18 19.06 СЗ 2 20 км 8/3 600 м
[Cu med, cong Ac trans Ci fib]
+22.8 +15.4 63 +27 +27 душно 1013.6 995.6 +28.0
21 19.06 З 3 10 км 3/0
[Ci fib]
+18.7 +12.2 66 +20 +20 тепло 1014.9 996.6
00 20.06 З 2 10 км ясно +15.5 +11.5 77 +15 +15 тепло 1016.8 998.2
03 20.06 З 2 20 км ясно +14.7 +12.0 84 +14 +15 по сезону 1017.9 999.3
06 20.06 З 5 20 км 3/3 600 м
[Cu hum]
+18.9 +11.5 62 +19 +22 тепло 1018.2 999.8 +14.1
09 20.06 З 6-10
{12}
20 км 3/3 600 м
[Cu hum]
+21.9 +9.4 45 +23 +28 комфорт 1017.7 999.5
12 20.06 З 7-11
{13}
20 км ясно +25.3 +7.4 32 +25 +29 комфорт 1016.0 998.0
15 20.06 З 5
{12}
20 км ясно +25.8 +5.9 28 +25 +28 комфорт 1015.5 997.5
18 20.06 СЗ 2
{11}
20 км ясно +21.9 +8.1 41 +23 +23 комфорт 1015.2 997.1 +26.2
21 20.06 ЮЗ 1 15 км ясно +14.3 +9.9 75 +15 +15 по сезону 1016.9 998.3
00 21.06 штиль 0 10 км ясно +10.4 +8.8 90 +10 +10 по сезону 1017.4 998.5
03 21.06 штиль 0 10 км ясно +11.2 +10.0 92 +10 +11 прохладно 1017.7 998.8
06 21.06 ЮЗ 1 20 км ясно +21.0 +11.1 53 +24 +33 комфорт 1017.2 998.9 +9.1
09 21.06 ЮЗ 2 20 км ясно +25.4 +10.8 40 +26 +42 жарко 1014.6 996.7
12 21.06 ЮЗ 2 20 км 5/5 600 м
[Cu hum]
+27.9 +11.9 37 +29 +36 жарко 1012.1 994.4
15 21.06 ЮЗ 2
{11}
20 км 3/3 600 м
[Cu hum]
+28.5 +11.1 34 +29 +33 жарко 1009.7 992.1
18 21.06 штиль 0 20 км 4/0
[Ac trans Ci fib]
+24.0 +13.2 51 +26 +26 жарко 1008.2 990.4 +29.2
21 21.06 Ю 1 15 км 3/0
[Ci fib]
+20.3 +12.5 61 +23 +23 комфорт 1007.1 989.0
00 22.06 Ю 2 10 км 8/0
[Ac trans]
+19.0 +13.2 69 +21 +21 комфорт 1005.7 987.5
03 22.06 Ю 1 12 км 8/0
[Ac trans Ci fib]
+18.7 +14.6 77 +21 +21 комфорт 1004.9 986.8
06 22.06 З 3
{11}
3600 м ливневой дождь 9/8 420 м
[Cb calv Ac und]
+18.0 +16.2 89 +18 +19 тепло 1006.6 988.4 +18.0 5
09 22.06 З 4
{10}
10 км {гроза, ливн. осадки} 9/8 630 м
[Sc Ac und]
+14.9 +12.2 84 +14 +15 холодно 1009.8 991.3
12 22.06 З 3 10 км {гроза, ливн. осадки} 9/3 300 м
[Sc Ac und]
+16.8 +11.3 70 +17 +20 прохладно 1010.7 992.4
15 22.06 СЗ 3 15 км 9/0
[Ac und]
+17.2 +9.1 59 +17 +19 прохладно 1011.8 993.4
18 22.06 СЗ 1 12 км 8/0
[Ac trans Ci fib]
+15.8 +9.5 66 +17 +17 по сезону 1011.8 993.4 +19.2 4
21 22.06 СЗ 1 10 км 9/0
[Ac und]
+13.9 +8.3 69 +14 +14 по сезону 1013.4 994.8
00 23.06 СЗ 1 10 км 9/0
[Ac und]
+12.1 +10.3 89 +12 +12 по сезону 1013.2 994.5
03 23.06 С 2 10 км 9/0
[Ac und]
+12.5 +8.2 75 +12 +12 по сезону 1012.8 994.1
06 23.06 С 3 12 км 9/0
[Ac und]
+13.6 +8.4 71 +13 +15 прохладно 1012.4 993.8 +11.7
09 23.06 С 2 7000 м слабый ливневой дождь 9/8 660 м
[Cb calv Ac und]
+13.1 +10.5 84 +12 +14 холодно 1012.4 993.8
12 23.06 С 4 8000 м слабый ливневой дождь 9/8 660 м
[Cb calv Ac und]
+10.9 +9.3 90 +8 +10 очень
холодно
1012.5 993.7
15 23.06 С 3 10 км в посл. час ливневой дождь 9/8 870 м
[Cb calv Ac und]
+10.8 +9.4 91 +9 +9 очень
холодно
1011.2 992.5
18 23.06 С 3 8000 м слабый ливневой дождь 9/8 750 м
[Cb calv Ac und]
+9.9 +8.7 92 +8 +8 очень
холодно
1009.5 990.8 +13.8 11
21 23.06 З 3 8000 м слабый ливневой дождь 10/10 840 м
[Cb calv]
+10.2 +9.1 93 +8 +8 холодно 1009.2 990.5
00 24.06 З 3 6000 м слабый ливневой дождь 10/10 450 м
[Cb calv]
+10.2 +9.4 95 +8 +8 прохладно 1008.6 989.9
03 24.06 З 3 10 км в посл. час ливневой дождь 9/4 300 м
[Cb calv Ac trans]
+9.6 +9.0 96 +7 +7 холодно 1008.5 989.7
06 24.06 З 3 8000 м слабый ливневой дождь 10/10 270 м
[Cb calv]
+10.6 +9.5 93 +8 +8 очень
холодно
1009.2 990.5 +9.6 4
09 24.06 ЮЗ 4 12 км {ливн. осадки} 9/9 500 м
[Sc]
+13.6 +8.9 73 +12 +13 холодно 1010.4 991.8
12 24.06 ЮЗ 2 15 км {ливн. осадки} 9/8 660 м
[Sc Ac trans]
+15.8 +9.9 68 +16 +18 холодно 1011.6 993.2
15 24.06 ЮЗ 3 15 км 9/6 960 м
[Sc Ac trans]
+14.9 +10.3 74 +14 +15 холодно 1012.5 994.0
18 24.06 ЮЗ 1 15 км ясно +14.1 +9.5 74 +14 +15 прохладно 1013.2 994.6 +17.1 0.0
21 24.06 ЮЗ 1 10 км ясно +10.0 +8.9 93 +9 +9 холодно 1014.3 995.5
00 25.06 штиль 0 10 км туман поземный 3/0
[Ci fib]
+8.6 +7.8 95 +8 +8 прохладно 1014.8 995.9
03 25.06 штиль 0 10 км 3/0
[Ac trans]
+8.8 +7.7 93 +8 +9 холодно 1015.8 996.9
06 25.06 Ю 1 10 км 9/5 300 м
[Sc Ac trans]
+14.3 +10.9 80 +15 +17 по сезону 1016.2 997.6 +7.6
09 25.06 ЮЗ 2 20 км 8/8 840 м
[Cu med, cong]
+17.6 +9.5 59 +18 +21 по сезону 1016.7 998.2
12 25.06 Ю 2 20 км 5/5 600 м
[Cu med, cong]
+19.6 +8.0 47 +21 +28 комфорт 1016.9 998.5
15 25.06 ЮЗ 1 20 км в посл. час ливневой дождь 8/4 300 м
[Cb calv Ac trans]
+17.7 +11.7 68 +19 +21 по сезону 1017.8 999.4
18 25.06 СЗ 1 15 км слабый ливневой дождь, в посл. час гроза 8/5 300 м
[Cb calv Ac trans]
+12.7 +10.1 84 +13 +13 холодно 1019.3 1000.5 +20.9 2

 

Местоположение метеостанции Бобруйск (Могилевская область, Беларусь): широта 53.21 долгота 29.13 высота над уровнем моря 156 м.

В архиве по умолчанию представлена погода в Бобруйске за последнюю неделю. Архивные данные за месяц целиком и за предыдущие месяцы, начиная с января 2011 года, Вы можете получить, выбрав интересующий диапазон дат из раскрывающегося списка и нажав кнопку "Ввод!".


*Определитесь, кто Вы:
робот инопланетянин человек

Внимание! Время в таблицах - всемирное. Для получения местного времени необходимо прибавить поправку, которая в Бобруйске равна 3 ч.

Смотрите также архив погоды в соседних городах и на ближайших метеорологических станциях:

Погода в Кличеве (Могилевская область, Беларусь) (35 км)
Погода в Октябре (Гомельская область, Беларусь) (67 км)
Погода в Жлобине (Гомельская область, Беларусь) (69 км)
Погода в Березино (Минская область, Беларусь) (70 км)
Погода в Марьиной Горке (Минская область, Беларусь) (72 км)
Погода в Могилеве (Могилевская область, Беларусь) (104 км)
Погода в Слуцке (Минская область, Беларусь) (107 км)
Погода в Могилев городе (Могилевская область, Беларусь) (110 км)
Погода в Василевичах (Гомельская область, Беларусь) (117 км)
Погода в Борисове (Минская область, Беларусь) (125 км)

Пояснения к столбцам:

Ветер - указаны скорость ветра в м/с - средняя за 10 мин, порывы в срок и между сроками (в фигурных скобках) и направление, откуда дует ветер: С - северный, СВ - северо-восточный, В - восточный, ЮВ - юго-восточный, Ю - южный, ЮЗ - юго-западный, З - западный, СЗ - северо-западный.
Видимость - горизонтальная дальность видимости в метрах или километрах. При видимости от 1 до 10 км при отсутствии осадков обычно наблюдается дымка, при ухудшении видимости до 1 км и менее - туман. В сухую погоду видимость может ухудшаться дымом, пылью или мглою.
Явления - указаны атмосферные явления, наблюдавшиеся в срок или в последний час перед сроком; фигурными скобками обозначены явления, наблюдавшиеся между сроками (за 1-3 часа до срока); квадратными скобками обозначены град или гололедные отложения с указанием их диаметра в мм.
Облачность - указаны через наклонную черту общая и нижняя облачность в баллах и высота нижней границы облаков в метрах; квадратными скобками обозначены формы облаков: Ci - перистые, Cs - перисто-слоистые, Cc - перисто-кучевые, Ac - высококучевые, As - высокослоистые, Sc - слоисто-кучевые, Ns - слоисто-дождевые, Cu - кучевые, Cb - кучево-дождевые. Подробнее классификацию облаков см. в Атласе облаков (PDF).
T - Температура воздуха - температура, измеренная на высоте 2 м над землей.
Td - Температура точки росы - температура, при понижении до которой содержащийся в воздухе водяной пар достигнет насыщения.
f - Относительная влажность воздуха - влажноcть воздуха, измеренная на высоте 2 м над землей.
Te - Эффективная температура - температура, которую ощущает одетый по сезону человек в тени. Характеристика душности погоды. При расчете учитывается влияние влажности воздуха и скорости ветра на теплоощущения человека.
Tes - Эффективная температура на солнце - температура, которую ощущает человек, с поправкой на солнечный нагрев. Характеристика знойности погоды. Зависит от высоты солнца над горизонтом, облачности и скорости ветра. Ночью, в пасмурную погоду, а также при ветре 12 м/с и более поправка равна нулю.
P - Атмосферное давление - приведенное к уровню моря атмосферное давление.
Po - Атмосферное давление - измеренное на уровне метеостанции атмосферное давление.
Tmin - Минимальная температура - минимум температуры воздуха на высоте 2 м над землей.
Tmax - Максимальная температура - максимум температуры воздуха на высоте 2 м над землей.
R - Количество осадков - Количество выпавших осадков за период времени, мм. При наведении курсора мыши на число - период времени, за который выпало указанное количество осадков.
R24 - Количество осадков - Количество выпавших осадков за 24 часа, мм.
S - Снежный покров - Высота снежного покрова, см. При наведении курсора мыши на число - состояние снежного покрова и степень покрытия местности в баллах.